Weather Roundup
Issued by NWS

Home | Current Version | Previous Version | Graphics & Text | Print | Product List | Glossary Off
Versions: 1 2 3 4 5 6 7 8 9 10 11 12 13 14 15 16 17 18 19 20 21 22 23 24 25 26 27 28 29 30 31 32 33 34 35 36 37 38 39 40 41 42 43 44 45 46 47 48 49 50

000
NZUS93 KARX 240410
HRRWXR

CURRENT HOURLY OBSERVATIONS ACROSS
MUCH OF THE UPPER MISSISSIPPI VALLEY
NATIONAL WEATHER SERVICE LA CROSSE WI
1100 PM CDT WED MAY 23 2018


...SOUTHEAST MINNESOTA...


CITY           SKY/WX    TMP DP  RH WIND       PRES   REMARKS
ROCHESTER      FAIR      69  64  84 SE12      30.12S
ROCHESTER/MAYO FAIR      71  64  79 SE7       30.12S
WINONA         FAIR      70  64  83 CALM      30.10R
AUSTIN         FAIR      72  63  73 SE6       30.10F
ALBERT LEA     FAIR      72  61  68 SE8       30.09S
DODGE CENTER   FAIR      70  63  78 SE12      30.11S
PRESTON        FAIR      69  62  78 SE8       30.14S
OWATONNA       FAIR      73  64  73 SE10      30.08F
FARIBAULT      FAIR      73  64  73 CALM      30.08F
$$

...ELSEWHERE IN MINNESOTA...


CITY           SKY/WX    TMP DP  RH WIND       PRES   REMARKS
MINNEAPOLIS    FAIR      75  65  70 SE13      30.07R
INTNL FALLS    FAIR      64  56  75 CALM      30.02S
DULUTH         FAIR      65  54  67 E3        30.10S
RED WING       FAIR      72  61  68 E7        30.09S
REDWOOD FALLS  MOCLDY    74  67  78 SE12      29.99S
MANKATO        FAIR      75  65  70 SE15      30.04
WORTHINGTON    CLOUDY    76  63  64 S16       30.01F
FAIRMONT       PTCLDY    75  65  70 S17       30.04S
$$

...SOUTHWEST WISCONSIN...


CITY           SKY/WX    TMP DP  RH WIND       PRES   REMARKS
LA CROSSE      FAIR      69  63  81 E3        30.12R
PRAIRIE DU CHI FAIR      70  60  71 CALM      30.14R
BOSCOBEL       FAIR      64  62  93 CALM      30.15R
LONE ROCK      FAIR      64  62  93 E3        30.15S
PLATTEVILLE    FAIR      68  62  80 SE7       30.17S
FORT MC COY    FAIR      61  60  95 CALM      30.16R
CAMP DOUGLAS   FAIR      65  64  99 S6        30.14S
MAUSTON-NEW LI FAIR      64  63  95 SE3       30.15S
VIROQUA        FAIR      69  62  79 SE6       30.17R
WIS DELLS      FAIR      65  60  84 CALM      30.16F
$$

...ELSEWHERE IN WISCONSIN...


CITY           SKY/WX    TMP DP  RH WIND       PRES   REMARKS
MILWAUKEE      FAIR      62  50  64 SW5       30.19R
MADISON        FAIR      65  60  84 CALM      30.16S
GREEN BAY      FAIR      67  54  63 S6        30.15S
EAU CLAIRE     FAIR      71  62  73 SE8       30.11S
BLACK RVR FLS  FAIR      59  59 100 CALM      30.14R
MEDFORD        FAIR      62  58  87 S5        30.15S
WAUSAU         FAIR      66  61  84 CALM      30.14R
WIS RAPIDS     FAIR      63  61  93 CALM      30.16S
MARSHFIELD     FAIR      65  61  87 S5        30.15R
RICE LAKE      FAIR      67  60  76 SE6       30.13S
$$

...NORTHEAST IOWA...


CITY           SKY/WX    TMP DP  RH WIND       PRES   REMARKS
WATERLOO       FAIR      72  64  76 SE7       30.10R
DUBUQUE        FAIR      68  59  73 SE9       30.16S
DECORAH        FAIR      70  64  83 SE7G14    30.13S
MASON CITY     PTCLDY    71  64  78 SE10      30.11R
CHARLES CITY   NOT AVBL
OELWEIN        FAIR      70  63  78 SE12      30.14R
$$

...ELSEWHERE IN IOWA...


CITY           SKY/WX    TMP DP  RH WIND       PRES   REMARKS
DES MOINES     CLEAR     76  64  66 SE9       30.07S
IOWA CITY      FAIR      73  62  68 SE5       30.13S
FORT DODGE     CLEAR     77  64  64 SE8       30.07S
MARSHALLTOWN   CLEAR     74  65  73 SE9       30.09S
CEDAR RAPIDS   FAIR      69  63  81 SE7       30.12R
$$

...NORTHERN ILLINOIS...


CITY           SKY/WX    TMP DP  RH WIND       PRES   REMARKS
CHICAGO-OHARE  FAIR      63  50  62 E5        30.18S
CHICAGO-MIDWAY FAIR      62  55  77 E6        30.19S
MOLINE         FAIR      69  60  73 E5        30.13S
ROCKFORD       FAIR      66  56  70 SE3       30.19R
PEORIA         FAIR      70  59  68 NE7       30.14S
$$

NOTE: "FAIR" INDICATES FEW OR NO CLOUDS BELOW 12,000 FEET WITH NO
SIGNIFICANT WEATHER AND/OR OBSTRUCTIONS TO VISIBILITY. WIND
SPEEDS ARE IN MILES-PER-HOUR.




USA.gov is the U.S. government's official web portal to all federal, state and local government web resources and services.